Location: Johnson City
(36.3130°N, 82.3540°W)
Time: 19:44:57
(UTC-04:00)

Envisat - Pass Details

Date: 28 February 2019
Orbit: 764 x 766 km, 98.2° (Epoch: 21 March)

Event Time Altitude Azimuth Distance (km) Brightness Sun altitude
Rises 20:32:50 0° 213° (SSW) 3,218 6.5 -26.8°
Reaches altitude 10° 20:36:23 10° 239° (WSW) 2,297 6.0 -27.5°
Maximum altitude 20:38:49 13° 269° (W) 2,066 6.1 -28.0°
Drops below altitude 10° 20:41:16 10° 298° (WNW) 2,304 6.4 -28.5°
Sets 20:44:51 0° 324° (NW) 3,236 6.9 -29.2°
